[TLELIST] Archives

 

[list_settings.list_name] Current TLEs

March 18th 2010 PST

HST 1 20580U 90037B 10074.55805056 .00000594 00000-0 32686-4 0 5364 2 20580 028.4690 131.0720 0003256 281.9683 078.0554 15.00920402890675 ISS (ZARYA) 1 25544U 98067A 10076.32391363 .00025404 00000-0 17730-3 0 7909 2 25544 051.6480 342.2229 0007722 060.1379 040.0664 15.74110709649008 CXO 1 25867U 99040B 10076.45833333 .00000243 00000-0 10000-3 0 4398 2 25867 066.6943 057.9815 8017560 275.2560 351.8592 00.37808501 6048 ____________________________________________________________________ These 2-Line ...Continue Reading

[list_settings.list_name] Current TLEs

March 17th 2010 PST

HST 1 20580U 90037B 10074.55805056 .00000594 00000-0 32686-4 0 5364 2 20580 028.4690 131.0720 0003256 281.9683 078.0554 15.00920402890675 ISS (ZARYA) 1 25544U 98067A 10075.37239706 .00023932 00000-0 16770-3 0 7834 2 25544 051.6480 347.1085 0007750 056.9491 047.6409 15.74056069648851 CXO 1 25867U 99040B 10076.45833333 .00000243 00000-0 10000-3 0 4398 2 25867 066.6943 057.9815 8017560 275.2560 351.8592 00.37808501 6048 ____________________________________________________________________ These 2-Line ...Continue Reading

[list_settings.list_name] Current TLEs

March 16th 2010 PST

HST 1 20580U 90037B 10073.56062710 .00000570 00000-0 30868-4 0 5359 2 20580 028.4688 137.5808 0003299 271.7379 088.2944 15.00919352890528 ISS (ZARYA) 1 25544U 98067A 10074.35574426 .00022673 00000-0 15949-3 0 7762 2 25544 051.6483 352.3280 0007951 052.9150 046.9057 15.74001890648695 CXO 1 25867U 99040B 10073.83333333 .00000168 00000-0 10000-3 0 4387 2 25867 066.6785 058.1087 8014960 275.2390 354.5486 00.37808284 6037 ____________________________________________________________________ These 2-Line ...Continue Reading

[list_settings.list_name] Current TLEs

March 15th 2010 PST

HST 1 20580U 90037B 10070.63484211 .00000536 00000-0 28217-4 0 5344 2 20580 028.4686 156.6845 0003419 241.3784 118.6401 15.00916775890089 ISS (ZARYA) 1 25544U 98067A 10073.51070602 .00020951 00000-0 14804-3 0 7706 2 25544 051.6475 356.6674 0007746 050.5459 297.7627 15.73956026648551 CXO 1 25867U 99040B 10073.83333333 .00000168 00000-0 10000-3 0 4387 2 25867 066.6785 058.1087 8014960 275.2390 354.5486 00.37808284 6037 ____________________________________________________________________ These 2-Line ...Continue Reading

[list_settings.list_name] Current TLEs

March 14th 2010 PST

HST 1 20580U 90037B 10070.63484211 .00000536 00000-0 28217-4 0 5344 2 20580 028.4686 156.6845 0003419 241.3784 118.6401 15.00916775890089 ISS (ZARYA) 1 25544U 98067A 10072.38735538 .00018433 00000-0 13112-3 0 7619 2 25544 051.6479 002.4336 0007999 046.5061 052.4183 15.73899515648383 CXO 1 25867U 99040B 10068.58333333 -.00000183 +00000-0 +10000-3 0 04369 2 25867 066.6519 058.3027 8008682 275.2227 359.9148 00.37807070006015 ____________________________________________________________________ These 2-Line ...Continue Reading

[list_settings.list_name] Current TLEs

March 13th 2010 PST

HST 1 20580U 90037B 10070.63484211 .00000536 00000-0 28217-4 0 5344 2 20580 028.4686 156.6845 0003419 241.3784 118.6401 15.00916775890089 ISS (ZARYA) 1 25544U 98067A 10071.37045914 .00015052 00000-0 10816-3 0 7543 2 25544 051.6475 007.6538 0007783 042.0686 051.2387 15.73847817648229 CXO 1 25867U 99040B 10068.58333333 -.00000183 +00000-0 +10000-3 0 04369 2 25867 066.6519 058.3027 8008682 275.2227 359.9148 00.37807070006015 ____________________________________________________________________ These 2-Line ...Continue Reading

[list_settings.list_name] Current TLEs

March 12th 2010 PST

HST 1 20580U 90037B 10066.57864224 +.00000570 +00000-0 +30822-4 0 05329 2 20580 028.4687 183.1574 0003395 198.8317 161.2293 15.00913799889472 ISS (ZARYA) 1 25544U 98067A 10066.17843750 .00014378 00000-0 10419-3 0 7188 2 25544 051.6477 034.3005 0007652 023.0080 154.7514 15.73697725647400 CXO 1 25867U 99040B 10068.58333333 -.00000183 +00000-0 +10000-3 0 04369 2 25867 066.6519 058.3027 8008682 275.2227 359.9148 00.37807070006015 ____________________________________________________________________ These 2-Line ...Continue Reading

[list_settings.list_name] Current TLEs

March 11th 2010 PST

HST 1 20580U 90037B 10066.57864224 +.00000570 +00000-0 +30822-4 0 05329 2 20580 028.4687 183.1574 0003395 198.8317 161.2293 15.00913799889472 ISS (ZARYA) 1 25544U 98067A 10065.70225694 .00014955 00000-0 10824-3 0 7155 2 25544 051.6484 036.7443 0007759 020.7312 337.5215 15.73686448647320 CXO 1 25867U 99040B 10068.58333333 -.00000183 +00000-0 +10000-3 0 04369 2 25867 066.6519 058.3027 8008682 275.2227 359.9148 00.37807070006015 ____________________________________________________________________ These 2-Line ...Continue Reading

[list_settings.list_name] Current TLEs

March 10th 2010 PST

HST 1 20580U 90037B 10066.57864224 +.00000570 +00000-0 +30822-4 0 05329 2 20580 028.4687 183.1574 0003395 198.8317 161.2293 15.00913799889472 ISS (ZARYA) 1 25544U 98067A 10065.22821759 .00015008 00000-0 10867-3 0 7119 2 25544 051.6477 039.1769 0007717 018.7598 172.1356 15.73671890647253 CXO 1 25867U 99040B 10063.25000000 -.00000247 00000-0 10000-3 0 4350 2 25867 066.6236 058.4754 7994520 275.2467 353.8754 00.37807142 5991 ____________________________________________________________________ These 2-Line ...Continue Reading

[list_settings.list_name] Current TLEs

March 9th 2010 PST

HST 1 20580U 90037B 10063.58635383 .00000494 00000-0 25066-4 0 5317 2 20580 028.4681 202.7003 0003608 173.2518 186.8077 15.00910894889025 ISS (ZARYA) 1 25544U 98067A 10065.07499095 .00015106 00000-0 10937-3 0 7102 2 25544 051.6477 039.9632 0007772 017.9119 024.3386 15.73667540647237 CXO 1 25867U 99040B 10063.25000000 -.00000247 00000-0 10000-3 0 4350 2 25867 066.6236 058.4754 7994520 275.2467 353.8754 00.37807142 5991 ____________________________________________________________________ These 2-Line ...Continue Reading
  • This mailing list is a public mailing list - anyone may join or leave, at any time.
  • This mailing list is announce-only.

International Space Station (ISS) / Hubble Space Telescope (HST) / Chandra X-Ray Observatory Orbital Data via EMAIL

Privacy Policy:

Private list